Regional Weather Roundup
Issued by NWS Albany, NY

Home | Current Version | Previous Version | Graphics & Text | Print | Product List | Glossary Off
Versions: 1 2 3 4 5 6 7 8 9 10 11 12 13 14 15 16 17 18 19 20 21 22 23 24 25 26 27 28 29 30 31 32 33 34 35 36 37 38 39 40 41 42 43 44 45 46 47 48 49 50

000
ASUS41 KALY 221810
RWRALY

NEW YORK STATE HOURLY WEATHER ROUNDUP
NATIONAL WEATHER SERVICE ALBANY NY
200 PM EDT TUE JUL 22 2014

NOTE: "FAIR" INDICATES FEW OR NO CLOUDS BELOW 12,000 FEET WITH NO
SIGNIFICANT WEATHER AND/OR NO OBSTRUCTIONS TO VISIBILITY.

NYZ032-033-038>043-046>054-057>066-NYZ062>081-221900-
EAST


CITY           SKY/WX    TMP DP  RH WIND       PRES   REMARKS
ALBANY         MOSUNNY   86  68  54 S7        30.06F
GLENS FALLS    MOSUNNY   85  70  60 SE12      30.05F
POUGHKEEPSIE   MOSUNNY   86  68  54 SW7       30.08F
MONTGOMERY     PTSUNNY   86  70  58 SW7       30.10F HX  90
WHITE PLAINS   MOSUNNY   84  65  52 CALM      30.12F
ISLIP          MOSUNNY   84  66  54 SW12      30.11F
NEW YORK CITY  PTSUNNY   85  65  51 S12G17    30.11S
CENTRAL PARK   MOSUNNY   84  67  56 CALM      30.14F
$$

NYZ005>009-017-018-044>046-055-056-221900-
CENTRAL


CITY           SKY/WX    TMP DP  RH WIND       PRES   REMARKS
FULTON         MOSUNNY   85  66  53 SW7       30.06F
SYRACUSE       PTSUNNY   88  64  44 VRB5      30.06F
ROME           MOSUNNY   84  67  56 SW5       30.08F
ELMIRA         MOSUNNY   86  69  56 S9        30.08F HX  90
BINGHAMTON     PTSUNNY   80  67  64 S6        30.14F
MONTICELLO     PTSUNNY   81  68  65 W6        30.16F
$$

NYZ026>034-041>043-221900-
NORTH


CITY           SKY/WX    TMP DP  RH WIND       PRES   REMARKS
WATERTOWN      SUNNY     84  64  50 W10       30.05F
FORT DRUM      NOT AVBL
MASSENA        MOSUNNY   84  66  54 SW10      30.04F
SARANAC LAKE   MOSUNNY   80  59  48 SW9       30.09F
PLATTSBURGH    SUNNY     83  66  56 SE12      30.02F
$$

NYZ001>004-010>016-019>021-221900-
WEST


CITY           SKY/WX    TMP DP  RH WIND       PRES   REMARKS
NIAGARA FALLS  MOSUNNY   84  63  49 SW12      30.04
BUFFALO        MOSUNNY   84  63  49 SW12      30.06F
DUNKIRK        SUNNY     82  68  62 W14       30.06F
JAMESTOWN      MOSUNNY   81  66  61 S6        30.11F
WELLSVILLE     MOSUNNY   85  65  51 SW8       30.15F
ROCHESTER      PTSUNNY   85  68  56 SW7       30.05F
PENN YAN       MOSUNNY   86  67  52 S6        30.08F
$$

             KEY
       WCI = WIND CHILL INDEX
       VSB = VISIBILITY
       HX  = HEAT INDEX
$$



USA.gov is the U.S. government's official web portal to all federal, state and local government web resources and services.